Regional Weather Roundup
Issued by NWS

Home | Current Version | Previous Version | Text Only | Print | Product List | Glossary On
Versions: 1 2 3 4 5 6 7 8 9 10 11 12 13 14 15 16 17 18 19 20 21 22 23 24 25 26 27 28
000
ASUS46 KSEW 240210
RWRWA

WASHINGTON REGIONAL WEATHER ROUNDUP
NATIONAL WEATHER SERVICE SEATTLE WA
600 PM PST THU NOV 23 2017

NOTE:"FAIR" INDICATES FEW OR NO CLOUDS BELOW 12,000 FEET WITH NO
SIGNIFICANT WEATHER AND/OR OBSTRUCTIONS TO VISIBILITY.

WAZ507-509-555>559-240300-
SEATTLE, TACOMA, EVERETT, AND VICINITY

CITY           SKY/WX    TMP DP  RH WIND       PRES   REMARKS
EVERETT        CLOUDY    49  47  93 S15       29.88R
BOEING FIELD   PTCLDY    51  46  83 S14       29.90R
RENTON         CLOUDY    52  47  83 SE10      29.90R
SEATAC AIRPORT PTCLDY    50  45  83 S16       29.90R
JBLM-MCCHORD   LGT RAIN  49  48  99 SW13      29.94R
PUYALLUP       MOCLDY    48  46  93 S6        29.94R
BREMERTON      MOCLDY    48  46  93 S12       29.90R
JBLM-FT LEWIS  LGT RAIN  49  49 100 S6        29.94R
TACOMA NARROWS MOCLDY    49  46  90 S12       29.92R
$$

WAZ001-503-506-510-514-515-240300-
NORTH INTERIOR

CITY           SKY/WX    TMP DP  RH WIND       PRES   REMARKS
BELLINGHAM     CLOUDY    52  42  69 S3        29.85R
FRIDAY HARBOR  CLEAR     49  42  77 SW8       29.85R
EASTSOUND      PTCLDY    52  43  71 S13       29.84R
PORT ANGELES   MOCLDY    46  44  93 SW6       29.86R
EDIZ HOOK      MOCLDY    48  46  91 CALM      29.86S
PORT TOWNSEND  CLOUDY    48  48 100 E5        29.87R
NAS WHIDBEY    CLOUDY    51  45  79 S6        29.90R
ARLINGTON      LGT RAIN  49  47  93 SE8       29.88S
BURLINGTON     CLOUDY    48  48 100 S3        29.87R
$$

WAZ020-022-039-040-504-511-512-240300-
SOUTHWEST INTERIOR

CITY           SKY/WX    TMP DP  RH WIND       PRES   REMARKS
SHELTON        MOCLDY    50  47  89 SW13      29.90R
OLYMPIA        LGT RAIN  49  48  97 S8        29.94R
CHEHALIS       MOCLDY    50  48  93 CALM      29.96R
KELSO          PTCLDY    50  47  89 CALM      29.99R
VANCOUVER      PTCLDY    51  45  79 W7        29.98R
SCAPPOOSE, OR  CLEAR     46  44  93 W6        29.98R
PORTLAND, OR   PTCLDY    52  46  80 W7        29.99R
$$

WAZ021-516-517-240300-
WASHINGTON COAST

CITY           SKY/WX    TMP DP  RH WIND       PRES   REMARKS
FORKS          MOCLDY    50  46  86 SW9       29.87R
HOQUIAM        MOCLDY    51  48  89 SW15      29.93R
ASTORIA, OR    PTCLDY    51  47  86 SW7       29.96R
$$

WAZ019-023-024-040-567>569-240300-
CASCADE MOUNTAINS AND COLUMBIA GORGE

CITY           SKY/WX    TMP DP  RH WIND       PRES   REMARKS
STAMPEDE PASS  CLOUDY    35  32  88 SW8G25    29.84R
TROUTDALE, OR  MOCLDY    54  47  77 W5        29.98R
HOOD RIVER, OR DRIZZLE   50  46  87 W6        29.93R
THE DALLES, OR MOCLDY    55  46  71 W13G21    29.90R
$$

WAZ026-027-041>044-520-521-240300-
EAST SLOPES

CITY           SKY/WX    TMP DP  RH WIND       PRES   REMARKS
OMAK           CLEAR     48  40  73 VRB5      29.71S
WENATCHEE      CLEAR     46  39  76 W7        29.78R
ELLENSBURG     CLEAR     42  37  82 E5        29.84R
YAKIMA         CLEAR     52  37  56 SW5       29.85R
SUNNYSIDE ARPT CLEAR     52  40  64 W7        29.84R
YAKIMA TC      FAIR      51  32  48 W16       29.82R
$$

WAZ028-034-035-240300-
COLUMBIA BASIN

CITY           SKY/WX    TMP DP  RH WIND       PRES   REMARKS
EPHRATA        CLEAR     47  34  60 SW8       29.76R
MOSES LAKE     PTCLDY    50  37  61 SW9       29.79R
PASCO          CLOUDY    55  45  68 NW8       29.85R
RICHLAND ARPT  MOCLDY    55  44  65 NW8       29.85R
HERMISTON, OR  CLOUDY    57  46  66 W16       29.87R
$$

WAZ036>038-240300-
NORTHEAST WASHINGTON

CITY           SKY/WX    TMP DP  RH WIND       PRES   REMARKS
SPOKANE GEIGER CLOUDY    50  45  83 SW20G28   29.73R
SPOKANE FELTS  CLOUDY    53  44  71 W17G33    29.72R
FAIRCHILD AFB  CLOUDY    48  48 100 SW17      29.72R
COEURDALENE,ID CLOUDY    52  44  74 SW17G28   29.71R
DEER PARK      MOCLDY    51  41  68 SW17G26   29.68S
$$

WAZ029>033-240300-
SOUTHEAST WASHINGTON

CITY           SKY/WX    TMP DP  RH WIND       PRES   REMARKS
PULLMAN        LGT RAIN  52  46  80 W18G30    29.80R
LEWISTON, ID   CLOUDY    58  49  72 W15       29.79R
WALLA WALLA    CLOUDY    57  49  74 SW21G26   29.85R
PENDLETON, OR  CLOUDY    52  48  86 W18       29.88R
$$




USA.gov is the U.S. government's official web portal to all federal, state and local government web resources and services.